Regional Weather Roundup
Issued by NWS San Angelo, TX

Home | Current Version | Previous Version | Text Only | Print | Product List | Glossary On
Versions: 1 2 3 4 5 6 7 8 9 10 11 12 13 14 15 16 17 18 19 20 21 22 23 24 25 26 27 28 29 30 31 32 33 34 35 36 37 38 39 40 41 42 43 44 45 46 47 48 49 50
000
ASUS44 KSJT 240710
RWRSJT
WEST CENTRAL TEXAS REGIONAL WEATHER ROUNDUP
NATIONAL WEATHER SERVICE SAN ANGELO TX
200 AM CDT SUN MAY 24 2015

NOTE: "FAIR" INDICATES FEW OR NO CLOUDS BELOW 12,000 FEET WITH NO
SIGNIFICANT WEATHER AND/OR OBSTRUCTIONS TO VISIBILITY.

TXZ049-054-064>066-071>073-076>078-098-099-113-114-127-128-139-140-
154-155-168>170-240800
...LOCATIONS ACROSS WEST CENTRAL TEXAS...

CITY           SKY/WX    TMP DP  RH WIND       PRES   REMARKS
SAN ANGELO     CLOUDY    64  61  90 E7        29.89S
ABILENE        CLOUDY    65  61  87 SE8       29.90S
DYESS AFB      CLOUDY    65  58  80 S12       29.86F
JUNCTION       LGT RAIN  64  60  87 SE17G28   29.92R
SWEETWATER     CLOUDY    64  61  90 SE12      29.90R
BROWNWOOD      CLOUDY    64  64 100 SE8       29.93R
COLEMAN        CLOUDY    65  64  95 SE6       29.93R
SONORA         CLOUDY    64  63  94 SE6       29.94S
OZONA          FAIR      63  61  94 S7        29.91F
BRADY          LGT RAIN  63  63 100 SE10      29.90S
$$

TEXAS PANHANDLE/OKLAHOMA PANHANDLE

CITY           SKY/WX    TMP DP  RH WIND       PRES   REMARKS
AMARILLO       CLOUDY    57  55  93 SE21G32   29.90F
BORGER         CLOUDY    59  56  89 SE12      29.90S
CANADIAN       CLOUDY    61  59  94 SE6       29.90S
DALHART        CLOUDY    57  55  93 SE9       29.90F FOG
DUMAS          CLOUDY    56  55  97 SE18      29.89S
GUYMON         NOT AVBL
HEREFORD       CLOUDY    58  57  99 MISG      29.91S FOG
PAMPA          CLOUDY    58  56  96 SE20G25   29.92S
PERRYTON       CLOUDY    59  57  95 S9        29.89R
$$

SOUTHERN PANHANDLE/SOUTH PLAINS/ROLLING PLAINS

CITY           SKY/WX    TMP DP  RH WIND       PRES   REMARKS
LUBBOCK        CLOUDY    58  56  93 S15G28    29.87F
SNYDER         CLOUDY    60  59  96 S6        29.89R
CHILDRESS      CLOUDY    60  59  96 CALM      29.90S
SEMINOLE       SUNNY     54  51  90 SE5       29.91R
$$

PERMIAN BASIN

CITY           SKY/WX    TMP DP  RH WIND       PRES   REMARKS
MIDLAND        CLEAR     61  59  93 CALM      29.88R
ODESSA           N/A    N/A N/A N/A MISG      29.89R
WINK           MOCLDY    63  56  78 SE6       29.85F
$$

FAR WEST/SOUTHWEST MOUNTAINS/TRANS PECOS

CITY           SKY/WX    TMP DP  RH WIND       PRES   REMARKS
ALPINE         CLOUDY    60  48  64 N7        30.04S
DRYDEN         NOT AVBL
EL PASO        CLEAR     70  20  15 W9        29.94S
FORT STOCKTON  LGT RAIN  63  56  78 W13       29.92R
GUADALUPE PASS CLEAR     59  17  19 SW8       30.00F
MARFA          PTCLDY    54  52  94 NE7       30.01S
PECOS          CLOUDY    61  57  88 CALM      29.83F
$$

DALLAS/FORT WORTH METROPLEX

CITY           SKY/WX    TMP DP  RH WIND       PRES   REMARKS
DFW AIRPORT    TSTM      67  67 100 NE5       29.87F FOG
FTW MEACHAM    RAIN      70  68  93 N6        29.86F FOG
DAL-EXECUTIVE  RAIN      70  68  93 NE8       29.85F
GRAND PRAIRIE  CLOUDY    69  69 100 N5        29.88F
ADDISON        RAIN     N/A N/A N/A E6        29.90F
MESQUITE       CLOUDY    72  71  97 E14       29.87F
LANCASTER      CLOUDY    71  69  94 E7        29.86F
$$

NORTH CENTRAL TEXAS

CITY           SKY/WX    TMP DP  RH WIND       PRES   REMARKS
SHRMAN/DENISON TSTM      69  68  97 S13       29.95S
GAINESVILLE    RAIN      68  67  98 SW6       29.96R
BRIDGEPORT     RAIN      68  68 100 CALM      29.93S
DENTON         LGT RAIN  69  68  96 E3        29.90F
WAXAHACHIE     HVY RAIN  71  71 100 E17G24    29.82F
GRANBURY         N/A     70  68  94 W7        29.89F
$$

WESTERN NORTH TEXAS

CITY           SKY/WX    TMP DP  RH WIND       PRES   REMARKS
WICHITA FALLS  CLOUDY    65  64  97 E10       29.87F
VERNON         CLOUDY    64  59  84 E9        29.89S
BRECKENRIDGE   CLOUDY    67  64  91 E6        29.88F
COMANCHE       CLOUDY    64  64 100 CALM      29.91S
$$

CENTRAL AND SOUTH CENTRAL TEXAS

CITY           SKY/WX    TMP DP  RH WIND       PRES   REMARKS
AUSTIN/BERGSTM LGT RAIN  65  65 100 SE10        N/A
WACO           CLOUDY    67  65  93 S22G31    29.89R
HILLSBORO      LGT RAIN  67  64  91 S20G26    29.88R
TEMPLE         CLOUDY    64  61  88 SE13      29.90S
KILLEEN-GRAY   NOT AVBL
FORT HOOD      CLOUDY    66  64  96 SE10      29.89S
GEORGETOWN     CLOUDY    66  64  94 S10       29.91S
LAGO VISTA     LGT RAIN  65  64  96 SE12G18   29.93S VSB 3/4
SAN MARCOS     CLOUDY    70  63  78 SE12      29.93F
NEW BRAUNFELS  LGT RAIN  67  66  97 SE14      29.89F
RANDOLPH AFB   NOT AVBL
SAN ANTONIO    LGT RAIN  71  68  90 SE17      29.85F
STINSON        LGT RAIN  68  67  96 SE8       29.86F
PLEASANTON     NOT AVBL
LA GRANGE      CLOUDY    69  68  97 CALM      29.92F
GIDDINGS       RAIN      66  65  96 SE5       29.97F
$$

EAST TEXAS

CITY           SKY/WX    TMP DP  RH WIND       PRES   REMARKS
PARIS          CLOUDY    72  66  83 SE13      29.95F
CLARKSVILLE    NOT AVBL
TYLER          CLOUDY    75  70  84 S16       29.95F
LONGVIEW       CLOUDY    74  70  87 S9        29.99F
PALESTINE      CLOUDY    75  72  88 SE10G16   29.98S
NACOGDOCHES    CLOUDY    73  70  88 S9        30.01F
$$

TEXAS HILL COUNTRY AND EDWARDS PLATEAU

CITY           SKY/WX    TMP DP  RH WIND       PRES   REMARKS
LLANO          CLOUDY    66  66 100 W6        29.98R
HORSESHOE BAY  LGT RAIN  66  64  93 S9G16     29.90F
KERRVILLE      TSTM      65  62  91 NW18G30   30.02R
FREDERICKSBRG  CLOUDY    65  63  92 SW10      29.99R
ROCKSPRINGS    CLOUDY    61  61 100 E10       29.96R
HONDO          LGT RAIN  71  67  87 SE14      29.92R
UVALDE         TSTM      65  64  95 N13G24    29.95R
DEL RIO        CLOUDY    67  65  93 SE6       29.86R
$$

SOUTHEAST TEXAS

CITY           SKY/WX    TMP DP  RH WIND       PRES   REMARKS
COLLEGE STN    CLOUDY    67  65  93 SE8       29.98S
CALDWELL       DRIZZLE   66  66 100 CALM      29.98F
CROCKETT       NOT AVBL
BRENHAM        RAIN      68  67  98 CALM      29.99F
HUNTSVILLE     CLOUDY    75  72  90 S6        30.00F
CONROE         CLOUDY    75  72  90 SE6       30.00F
HOUSTON BUSH   CLOUDY    77  73  87 SE12      29.98F
HOUSTON HOBBY  CLOUDY    79  73  82 SE9       29.97F
PERLAND        CLOUDY    80  73  79 SE9       29.99F
WHARTON        CLOUDY    75  73  93 E7        29.95F
$$

THE UPPER TEXAS COAST

CITY           SKY/WX    TMP DP  RH WIND       PRES   REMARKS
ORANGE         PTSUNNY   78  73  82 SE12      30.04F
PORT ARTHUR    PTCLDY    79  73  82 S15G23    30.01F
GALVESTON      CLOUDY    80  75  84 SE20G26   30.00F
ANGLETON       CLOUDY    77  74  90 SE13      29.97F
BAY CITY       CLOUDY    79  76  92 SE9       29.95F
$$

TEXAS COASTAL BEND, RIO GRANDE PLAINS DEEP SOUTH TEXAS

CITY           SKY/WX    TMP DP  RH WIND       PRES   REMARKS
VICTORIA       TSTM      75  74  96 W12       29.91F VSB 3/4
BEEVILLE       TSTM      76  76 100 S6        29.90F
ROCKPORT       CLOUDY    81  76  84 SE14G24   29.90F
PORT ARANSAS   CLOUDY    80  77  90 S21G28    29.91F
PORT LAVACA    HVY RAIN  79  75  89 SE15G26   29.91F
CORPUS CHRISTI TSTM      71  69  93 SW16      29.93F
KINGSVILLE NAS NOT AVBL
COTULLA        LGT RAIN  75  70  84 SE20G32   29.81F
LAREDO         LGT RAIN  69  67  93 S18       29.92S
BROWNSVILLE    CLOUDY    81  77  88 SE12      29.92F
PORT ISABEL    CLOUDY    81  76  84 S10       29.90F
HEBBRONVILLE     N/A     67  66  96 S9        29.94F
MCALLEN        TSTM      73  68  84 N7        30.00F
WESLACO        TSTM      70  67  90 NW9       29.99F
FALFURRIAS     CLOUDY    69  67  92 SW7       29.96F
EDINBURG       RAIN      72  69  89 SE3       30.00S
$$



USA.gov is the U.S. government's official web portal to all federal, state and local government web resources and services.